Mayfield, KY

11:10 AM CDT on August 25, 2016 (GMT -0500)
Mayfld Grav Cnty AP, Mayfield

Weather History for KM25 - May, 2014

Change the Weather History Date:

Friday, May 9, 2014

  Actual Average (KPAH) Record (KPAH)
Temperature  
Mean Temperature 68 °F 65 °F  
Max Temperature 73 °F 76 °F 88 °F (1986)
Min Temperature 62 °F 54 °F 36 °F (1960)
Degree Days  
Heating Degree Days 0 3  
Month to date heating degree days 30  
Since 1 July heating degree days 4094  
Cooling Degree Days 2 3  
Month to date cooling degree days 21  
Year to date cooling degree days 63  
Growing Degree Days 18 (Base 50)    
Moisture  
Dew Point 63 °F    
Average Humidity 79    
Maximum Humidity 100    
Minimum Humidity 61    
Precipitation  
Precipitation 0.00 in 0.18 in 0.77 in (2000)
Month to date precipitation 1.58  
Year to date precipitation 17.86  
Snow  
Snow 0.00 in 0.00 in 0.00 in (2002)
Month to date snowfall 0.0  
Since 1 July snowfall 9.1  
Snow Depth -    
Sea Level Pressure  
Sea Level Pressure 29.93 in    
Wind  
Wind Speed 9 mph (SSW)    
Max Wind Speed 17 mph    
Max Gust Speed 23 mph    
Visibility 10 miles    
Events Rain    
T = Trace of Precipitation, MM = Missing Value Source: NWS Daily Summary

Daily Weather History Graph

Daily Weather History Graph

Search for Another Location

Airport or City:

Trip Planner

Search our weather history database for the weather conditions in past years. The results will help you decide how hot, cold, wet, or windy it might be!

Date:

Astronomy

May. 09, 2014 Rise Set
Actual Time 5:52 AM CDT 7:49 PM CDT
Civil Twilight 5:23 AM CDT 8:18 PM CDT
Nautical Twilight 4:49 AM CDT 8:53 PM CDT
Astronomical Twilight 4:12 AM CDT 9:30 PM CDT
Moon 2:54 PM CDT (5/9) 2:45 AM CDT (5/9)
Length of Visible Light 14h 54m
Length of Day
13h 57m
Waxing Gibbous, 74% of the Moon is Illuminated
May 9
Waxing Gibbous
May 14
Full
May 21
Last Quarter
May 28
New
Jun 5
First Quarter

Hourly Weather History & Observations

Time (CDT) Temp. Dew Point Humidity Pressure Visibility Wind Dir Wind Speed Gust Speed Precip Events Conditions
12:15 AM 73.4 °F 59.0 °F 61% 29.96 in 10.0 mi South 9.2 mph - N/A   Overcast
12:55 AM 71.6 °F 59.0 °F 64% 29.95 in 10.0 mi South 8.1 mph - N/A   Mostly Cloudy
1:15 AM 71.6 °F 59.0 °F 64% 29.94 in 10.0 mi South 8.1 mph - N/A   Scattered Clouds
1:35 AM 71.6 °F 59.0 °F 64% 29.93 in 10.0 mi South 6.9 mph - N/A   Scattered Clouds
1:55 AM 71.6 °F 59.0 °F 64% 29.93 in 10.0 mi South 6.9 mph - N/A   Scattered Clouds
2:15 AM 71.6 °F 59.0 °F 64% 29.92 in 10.0 mi South 9.2 mph - N/A   Scattered Clouds
2:55 AM 71.6 °F 60.8 °F 69% 29.91 in 10.0 mi South 6.9 mph - N/A   Scattered Clouds
3:15 AM 71.6 °F 60.8 °F 69% 29.90 in 10.0 mi South 6.9 mph - N/A   Scattered Clouds
3:35 AM 71.6 °F 60.8 °F 69% 29.90 in 10.0 mi South 8.1 mph - N/A   Mostly Cloudy
3:55 AM 69.8 °F 60.8 °F 73% 29.89 in 10.0 mi South 8.1 mph - N/A   Overcast
4:15 AM 69.8 °F 60.8 °F 73% 29.89 in 10.0 mi South 8.1 mph - N/A Rain Light Rain
4:35 AM 69.8 °F 60.8 °F 73% 29.89 in 10.0 mi South 8.1 mph - N/A Rain Light Rain
4:55 AM 69.8 °F 62.6 °F 78% 29.88 in 10.0 mi South 8.1 mph - N/A Rain Light Rain
5:15 AM 69.8 °F 62.6 °F 78% 29.89 in 10.0 mi South 8.1 mph - N/A Rain Light Rain
5:35 AM 68.0 °F 62.6 °F 83% 29.89 in 10.0 mi South 5.8 mph - N/A Rain Light Rain
5:55 AM 68.0 °F 62.6 °F 83% 29.89 in 7.0 mi SW 9.2 mph - N/A Rain Rain
6:15 AM 66.2 °F 64.4 °F 94% 29.89 in 10.0 mi South 9.2 mph 18.4 mph N/A Rain Rain
6:35 AM 64.4 °F 62.6 °F 94% 29.91 in 10.0 mi SSW 10.4 mph - N/A Rain Rain
6:55 AM 64.4 °F 62.6 °F 94% 29.93 in 10.0 mi SSW 10.4 mph - N/A Rain Light Rain
7:15 AM 62.6 °F 60.8 °F 94% 29.94 in 10.0 mi SSW 6.9 mph - N/A Rain Rain
7:35 AM 62.6 °F 62.6 °F 100% 29.93 in 10.0 mi SSW 8.1 mph - N/A   Overcast
7:55 AM 64.4 °F 62.6 °F 94% 29.93 in 10.0 mi South 9.2 mph - N/A   Mostly Cloudy
8:15 AM 64.4 °F 62.6 °F 94% 29.95 in 10.0 mi SSW 9.2 mph - N/A   Mostly Cloudy
8:35 AM 64.4 °F 62.6 °F 94% 29.95 in 10.0 mi SSW 6.9 mph - N/A   Scattered Clouds
8:55 AM 66.2 °F 62.6 °F 88% 29.94 in 10.0 mi SSW 8.1 mph - N/A   Clear
9:15 AM 66.2 °F 62.6 °F 88% 29.95 in 10.0 mi SSW 6.9 mph - N/A   Clear
9:35 AM 68.0 °F 62.6 °F 83% 29.95 in 10.0 mi SW 11.5 mph 16.1 mph N/A   Clear
9:55 AM 68.0 °F 64.4 °F 88% 29.95 in 10.0 mi SW 6.9 mph 17.3 mph N/A   Scattered Clouds
10:15 AM 69.8 °F 64.4 °F 83% 29.95 in 10.0 mi SSW 11.5 mph - N/A   Overcast
10:35 AM 69.8 °F 64.4 °F 83% 29.97 in 10.0 mi SW 13.8 mph 19.6 mph N/A   Overcast
10:55 AM 69.8 °F 64.4 °F 83% 29.97 in 10.0 mi SW 11.5 mph - N/A   Overcast
11:15 AM 69.8 °F 64.4 °F 83% 29.97 in 10.0 mi SW 12.7 mph 17.3 mph N/A   Overcast
11:35 AM 69.8 °F 64.4 °F 83% 29.97 in 10.0 mi SW 9.2 mph 16.1 mph N/A   Overcast
11:55 AM 69.8 °F 64.4 °F 83% 29.97 in 10.0 mi SW 11.5 mph - N/A   Overcast
12:15 PM 71.6 °F 64.4 °F 78% 29.96 in 10.0 mi SW 8.1 mph - N/A   Overcast
12:35 PM 71.6 °F 64.4 °F 78% 29.96 in 10.0 mi SSW 8.1 mph - N/A   Mostly Cloudy
12:55 PM 71.6 °F 64.4 °F 78% 29.96 in 10.0 mi SSW 12.7 mph 16.1 mph N/A   Mostly Cloudy
1:15 PM 73.4 °F 62.6 °F 69% 29.96 in 10.0 mi SW 13.8 mph 19.6 mph N/A   Mostly Cloudy
1:35 PM 71.6 °F 62.6 °F 73% 29.96 in 10.0 mi SSW 13.8 mph 19.6 mph N/A   Overcast
1:55 PM 73.4 °F 62.6 °F 69% 29.95 in 10.0 mi SW 10.4 mph - N/A   Overcast
2:15 PM 73.4 °F 62.6 °F 69% 29.95 in 10.0 mi SW 17.3 mph 23.0 mph N/A   Overcast
2:35 PM 71.6 °F 64.4 °F 78% 29.94 in 10.0 mi SSW 15.0 mph 19.6 mph N/A   Overcast
2:55 PM 73.4 °F 64.4 °F 73% 29.93 in 10.0 mi SSW 10.4 mph 21.9 mph N/A   Overcast
3:15 PM 73.4 °F 64.4 °F 73% 29.92 in 10.0 mi SSW 13.8 mph 20.7 mph N/A   Mostly Cloudy
3:35 PM 73.4 °F 64.4 °F 73% 29.91 in 10.0 mi SSW 17.3 mph 21.9 mph N/A   Overcast
3:55 PM 71.6 °F 64.4 °F 78% 29.90 in 10.0 mi SSW 16.1 mph - N/A   Overcast
4:15 PM 71.6 °F 64.4 °F 78% 29.90 in 10.0 mi SSW 13.8 mph 18.4 mph N/A   Overcast
4:35 PM 71.6 °F 64.4 °F 78% 29.91 in 10.0 mi SSW 11.5 mph 16.1 mph N/A   Overcast
4:55 PM 71.6 °F 64.4 °F 78% 29.92 in 10.0 mi SSW 8.1 mph - N/A   Overcast
5:15 PM 71.6 °F 64.4 °F 78% 29.92 in 10.0 mi SSW 8.1 mph - N/A   Overcast
5:35 PM 69.8 °F 64.4 °F 83% 29.92 in 4.0 mi SSW 6.9 mph - N/A   Drizzle
5:55 PM 69.8 °F 64.4 °F 83% 29.91 in 10.0 mi South 6.9 mph - N/A   Light Drizzle
6:15 PM 69.8 °F 64.4 °F 83% 29.91 in 10.0 mi SSW 10.4 mph 17.3 mph N/A   Overcast
6:35 PM 69.8 °F 64.4 °F 83% 29.91 in 10.0 mi South 6.9 mph - N/A   Light Drizzle
6:55 PM 69.8 °F 64.4 °F 83% 29.91 in 10.0 mi South 9.2 mph - N/A   Overcast
7:15 PM 69.8 °F 64.4 °F 83% 29.91 in 10.0 mi South 6.9 mph - N/A   Overcast
7:35 PM 69.8 °F 64.4 °F 83% 29.91 in 10.0 mi South 6.9 mph - N/A   Overcast
7:55 PM 69.8 °F 64.4 °F 83% 29.92 in 10.0 mi SSW 10.4 mph 16.1 mph N/A   Overcast
8:15 PM 69.8 °F 64.4 °F 83% 29.93 in 10.0 mi South 8.1 mph - N/A   Overcast
8:35 PM 69.8 °F 62.6 °F 78% 29.93 in 10.0 mi SSW 9.2 mph 16.1 mph N/A   Overcast
8:55 PM 69.8 °F 62.6 °F 78% 29.93 in 10.0 mi SSW 9.2 mph - N/A   Overcast
9:15 PM 69.8 °F 62.6 °F 78% 29.94 in 10.0 mi South 5.8 mph - N/A   Overcast
9:35 PM 69.8 °F 62.6 °F 78% 29.95 in 10.0 mi South 6.9 mph - N/A   Overcast
9:55 PM 69.8 °F 62.6 °F 78% 29.96 in 10.0 mi SSW 8.1 mph - N/A   Overcast
10:15 PM 69.8 °F 62.6 °F 78% 29.96 in 10.0 mi South 5.8 mph - N/A   Overcast
10:35 PM 68.0 °F 62.6 °F 83% 29.96 in 10.0 mi South 5.8 mph - N/A   Overcast
10:55 PM 68.0 °F 62.6 °F 83% 29.96 in 10.0 mi South 9.2 mph - N/A   Scattered Clouds
11:15 PM 68.0 °F 62.6 °F 83% 29.95 in 10.0 mi SSW 6.9 mph - N/A   Mostly Cloudy
11:35 PM 68.0 °F 62.6 °F 83% 29.95 in 10.0 mi South 5.8 mph - N/A   Overcast
11:55 PM 68.0 °F 62.6 °F 83% 29.95 in 10.0 mi South 6.9 mph - N/A   Overcast